DW8248 Weather Reports


Display with metric or nautical units.
time (UTC)temp
F
wind
direction
speed
MPH
gust
MPH
rain 1hr
in
rain 24hr
in
rain mn
in
humidity
%
barometer
mb
20200216211404 73 128 12.0 18.0 0.00 0.03 0.00 84 1016.7
20200216210406 73 144 10.0 17.0 0.00 0.03 0.00 84 1016.9
20200216205428 73 136 9.0 17.0 0.00 0.03 0.00 84 1016.9
20200216204424 74 120 9.0 17.0 0.00 0.03 0.00 84 1016.9
20200216203403 74 128 9.0 16.0 0.00 0.03 0.00 84 1017.1
20200216202348 74 110 9.0 16.0 0.00 0.03 0.00 84 1017.3
20200216201321 74 139 9.0 15.0 0.00 0.03 0.00 84 1017.6
20200216200320 74 119 8.0 15.0 0.00 0.03 0.00 84 1017.7
20200216195328 74 120 6.0 15.0 0.00 0.03 0.00 84 1017.8
20200216194332 74 98 8.0 15.0 0.00 0.03 0.00 84 1017.9
20200216193339 74 113 8.0 13.0 0.00 0.03 0.00 83 1017.8
20200216192314 74 119 7.0 13.0 0.00 0.03 0.00 83 1017.9
20200216191310 74 149 7.0 13.0 0.00 0.03 0.00 83 1018.3
20200216190238 74 117 6.0 13.0 0.00 0.03 0.00 85 1018.4
20200216185244 74 119 7.0 13.0 0.00 0.03 0.00 84 1018.5
20200216184249 74 145 7.0 13.0 0.00 0.03 0.00 84 1018.7
20200216183305 75 141 7.0 14.0 0.00 0.03 0.00 82 1018.7
20200216182316 75 132 6.0 14.0 0.00 0.03 0.00 83 1019.0
20200216181324 74 134 6.0 14.0 0.00 0.03 0.00 83 1019.0
20200216180314 75 163 6.0 14.0 0.00 0.03 0.00 83 1019.0
20200216175245 74 128 7.0 13.0 0.00 0.03 0.00 82 1019.3
20200216174305 74 148 7.0 13.0 0.00 0.03 0.00 82 1019.5
20200216173258 74 140 7.0 15.0 0.00 0.03 0.00 83 1019.6
20200216172234 74 119 9.0 15.0 0.00 0.03 0.00 83 1019.6
20200216171246 74 122 8.0 13.0 0.00 0.03 0.00 83 1019.7
20200216170247 74 148 9.0 15.0 0.00 0.03 0.00 83 1019.8
20200216165213 74 134 9.0 16.0 0.00 0.03 0.00 82 1019.9
20200216164230 74 135 9.0 14.0 0.00 0.03 0.00 82 1020.0
20200216163203 74 161 10.0 16.0 0.00 0.03 0.00 82 1020.3
20200216162201 74 145 9.0 16.0 0.00 0.03 0.00 82 1020.5
20200216161224 74 128 7.0 16.0 0.00 0.03 0.00 82 1020.6
20200216160158 74 164 6.0 12.0 0.00 0.03 0.00 83 1020.8
20200216155216 73 115 6.0 11.0 0.00 0.03 0.00 83 1021.0
20200216154145 73 121 6.0 11.0 0.00 0.03 0.00 83 1021.0
20200216153202 73 122 4.0 9.0 0.00 0.03 0.00 84 1021.0
20200216152128 73 110 4.0 10.0 0.00 0.03 0.00 84 1020.9
20200216151113 73 106 6.0 14.0 0.00 0.03 0.00 84 1020.6
20200216150103 72 118 7.0 14.0 0.00 0.03 0.00 84 1020.6
20200216145116 72 110 7.0 12.0 0.00 0.03 0.00 85 1020.8
20200216144101 72 134 6.0 10.0 0.00 0.03 0.00 84 1021.1
20200216143037 72 117 4.0 8.0 0.00 0.03 0.00 86 1021.0
20200216142013 72 114 3.0 7.0 0.00 0.03 0.00 86 1021.2
20200216141034 72 136 4.0 10.0 0.00 0.03 0.00 86 1021.1
20200216140031 72 121 5.0 10.0 0.00 0.03 0.00 86 1021.1
20200216135042 71 100 3.0 8.0 0.00 0.03 0.00 86 1021.2
20200216134007 71 98 4.0 9.0 0.00 0.03 0.00 86 1021.1
20200216132946 71 115 5.0 11.0 0.00 0.03 0.00 85 1020.9
20200216131958 71 139 5.0 11.0 0.00 0.03 0.00 86 1021.0
20200216130951 71 93 4.0 9.0 0.00 0.03 0.00 86 1021.1
20200216125914 70 104 4.0 9.0 0.00 0.03 0.00 88 1021.0
20200216124916 70 123 3.0 8.0 0.00 0.03 0.00 89 1021.2
20200216123931 69 119 2.0 7.0 0.00 0.03 0.00 90 1021.0
20200216122920 69 118 2.0 7.0 0.00 0.03 0.00 90 1021.0
20200216121858 69 121 3.0 7.0 0.00 0.03 0.00 90 1020.9
20200216120822 69 103 2.0 6.0 0.00 0.03 0.00 90 1020.8
20200216115757 68 110 2.0 6.0 0.00 0.03 0.00 91 1021.0
20200216114807 68 94 1.0 5.0 0.00 0.03 0.00 92 1021.0
20200216113731 68 76 0.0 3.0 0.00 0.03 0.00 92 1021.1
20200216112739 68 75 0.0 2.0 0.00 0.03 0.00 92 1020.9
20200216111721 68 74 0.0 2.0 0.00 0.03 0.00 92 1020.9
20200216110712 67 99 0.0 0.0 0.00 0.03 0.00 93 1020.8
20200216105641 67 92 0.0 2.0 0.00 0.03 0.00 93 1020.7
20200216104633 67 108 0.0 0.0 0.00 0.03 0.00 92 1020.6
20200216103653 67 116 0.0 1.0 0.00 0.03 0.00 92 1020.6
20200216102656 67 116 0.0 0.0 0.00 0.03 0.00 92 1020.6
20200216101709 67 116 0.0 0.0 0.00 0.03 0.00 92 1020.6
20200216100705 67 116 0.0 0.0 0.00 0.03 0.00 92 1020.7
20200216095636 67 116 0.0 0.0 0.00 0.03 0.00 91 1020.7
20200216094622 68 116 0.0 0.0 0.00 0.03 0.00 91 1020.7
20200216093619 68 116 0.0 0.0 0.00 0.03 0.00 91 1020.7
20200216092616 68 116 0.0 0.0 0.00 0.03 0.00 91 1020.6
20200216091617 68 105 0.0 0.0 0.00 0.03 0.00 91 1020.7
20200216090555 68 132 0.0 0.0 0.00 0.03 0.00 91 1020.7
20200216085607 68 132 0.0 0.0 0.00 0.03 0.00 90 1020.7
20200216084535 68 135 0.0 2.0 0.00 0.03 0.00 90 1020.8
20200216083556 68 107 1.0 3.0 0.00 0.03 0.00 90 1020.8
20200216082541 68 115 1.0 5.0 0.00 0.03 0.00 90 1020.8
20200216081534 68 123 1.0 3.0 0.00 0.03 0.00 90 1020.9
20200216080510 69 124 1.0 6.0 0.00 0.03 0.00 89 1021.1
20200216075532 69 115 2.0 6.0 0.00 0.03 0.00 89 1021.1
20200216074504 69 124 2.0 6.0 0.00 0.03 0.00 89 1021.1
20200216073449 69 116 2.0 7.0 0.00 0.03 0.00 89 1021.3
20200216072449 69 115 2.0 7.0 0.00 0.03 0.00 89 1021.4
20200216071432 69 114 2.0 6.0 0.00 0.03 0.00 88 1021.6
20200216070411 69 116 2.0 7.0 0.00 0.03 0.00 88 1021.6
20200216065348 69 111 3.0 6.0 0.00 0.03 0.00 88 1021.8
20200216064409 69 169 2.0 7.0 0.00 0.03 0.00 88 1021.7
20200216063401 69 129 3.0 7.0 0.00 0.03 0.00 88 1021.7
20200216062355 69 130 2.0 6.0 0.00 0.03 0.00 88 1021.7
20200216061326 69 127 2.0 7.0 0.00 0.03 0.00 88 1021.8
20200216060254 69 100 2.0 7.0 0.00 0.03 0.00 88 1021.9
20200216055237 69 96 3.0 7.0 0.00 0.03 0.00 88 1021.9
20200216054227 69 127 3.0 7.0 0.00 0.03 0.00 87 1022.0
20200216053246 69 101 2.0 7.0 0.00 0.03 0.00 87 1021.9
20200216052228 69 102 3.0 7.0 0.00 0.03 0.00 87 1021.9
20200216051206 69 107 3.0 7.0 0.00 0.03 0.00 87 1022.0
20200216050216 69 115 2.0 11.0 0.00 0.03 0.00 87 1022.1
20200216045201 69 127 4.0 11.0 0.00 0.03 0.03 87 1022.2
20200216044211 69 110 3.0 8.0 0.00 0.03 0.03 87 1022.1
20200216043223 69 111 3.0 8.0 0.00 0.03 0.03 87 1022.3
20200216042159 70 85 3.0 9.0 0.00 0.03 0.03 86 1022.3
20200216041134 70 100 4.0 9.0 0.00 0.03 0.03 86 1022.4
20200216040153 70 108 2.0 7.0 0.00 0.03 0.03 86 1022.5
20200216035215 69 85 2.0 6.0 0.00 0.03 0.03 87 1022.6
20200216034143 69 94 2.0 8.0 0.00 0.03 0.03 88 1022.7
20200216033137 69 96 2.0 8.0 0.00 0.03 0.03 87 1022.6
20200216032143 69 76 2.0 6.0 0.00 0.03 0.03 87 1022.6
20200216031130 69 74 3.0 9.0 0.00 0.03 0.03 86 1022.5
20200216030101 69 109 4.0 11.0 0.00 0.03 0.03 86 1022.5
20200216025124 69 94 5.0 11.0 0.00 0.03 0.03 86 1022.5
20200216024109 69 94 5.0 11.0 0.00 0.03 0.03 86 1022.5
20200216023121 69 99 4.0 10.0 0.00 0.03 0.03 87 1022.6
20200216022102 69 125 4.0 10.0 0.00 0.03 0.03 87 1022.8
20200216021123 69 102 3.0 10.0 0.00 0.03 0.03 87 1022.7
20200216020116 69 101 3.0 10.0 0.00 0.03 0.03 86 1022.8
20200216015054 69 110 4.0 9.0 0.00 0.03 0.03 87 1022.8
20200216014057 70 72 4.0 12.0 0.00 0.03 0.03 87 1022.9
20200216013030 70 63 4.0 10.0 0.00 0.03 0.03 87 1022.9
20200216012036 70 102 4.0 11.0 0.00 0.03 0.03 88 1022.8
20200216011057 70 111 5.0 11.0 0.00 0.03 0.03 88 1022.8
20200216010037 70 78 4.0 10.0 0.00 0.03 0.03 88 1022.8
20200216005042 69 88 5.0 13.0 0.00 0.03 0.03 87 1022.7
20200216004008 69 93 7.0 16.0 0.00 0.03 0.03 87 1022.6
20200216003030 69 86 7.0 16.0 0.00 0.03 0.03 87 1022.7
20200216002038 69 84 7.0 15.0 0.00 0.03 0.03 88 1022.5
20200216001011 69 90 4.0 13.0 0.07 0.03 0.03 87 1022.5
20200216000011 70 117 4.0 10.0 0.00 0.00 0.01 85 1022.5
20200215235024 70 84 3.0 8.0 0.00 0.00 0.00 85 1022.5
20200215234012 70 67 2.0 8.0 0.00 0.00 0.00 85 1022.5
20200215232954 70 34 2.0 10.0 0.00 0.00 0.00 85 1022.5
20200215231932 70 67 3.0 10.0 0.00 0.00 0.00 86 1022.6
20200215230921 70 44 2.0 9.0 0.00 0.00 0.00 85 1022.5
20200215225915 71 29 2.0 6.0 0.00 0.00 0.00 85 1022.6
20200215224909 71 58 3.0 9.0 0.00 0.00 0.00 84 1022.6
20200215223905 71 78 2.0 9.0 0.00 0.00 0.00 84 1022.5
20200215222831 71 66 1.0 8.0 0.00 0.00 0.00 83 1022.5
20200215221806 72 30 2.0 9.0 0.00 0.00 0.00 83 1022.6
20200215220747 72 49 3.0 9.0 0.00 0.00 0.00 82 1022.6
20200215215730 72 61 4.0 9.0 0.00 0.00 0.00 83 1022.6
20200215214716 73 18 3.0 9.0 0.00 0.00 0.00 83 1022.5
20200215213719 73 61 3.0 8.0 0.00 0.00 0.00 81 1022.4
20200215212711 73 25 3.0 7.0 0.00 0.00 0.00 82 1022.4
20200215211717 73 88 3.0 9.0 0.00 0.00 0.00 82 1022.4